Torna al catalogo

DELTA 1 DEB

AttivoPO
NORAD 21464·DEBRIS·🇺🇸 United States

Lanciato Jun 12, 1975 da Vandenberg Space Force Base

Loading…

Prossimi Passaggi (prossime 24 ore)

TLE

AggiornatoSource: Space-Track

Epoca: Sep 14, 2026, 05:18 UTC

1 21464U 75052EY  26257.22128590  .00001467  00000-0  34769-2 0  9996
2 21464  99.7721 173.4149 0190339 193.6454 324.8413 13.18690729673197

Traccia DELTA 1 DEB in tempo reale con AllMySat

Download on the App Store